Overview Statistics Trail Chart Weather Telemetry Raw packets
 

This is the latest recevied weather packets stored in our database for station/object K0QED. If no packets are shown the sender has not sent any weather packets the latest 10 day(s).

<< 59 60 61 62 63 64 65 >>
Time Temp. Humidity Pressure Rain* Wind** Luminosity Snow
1788216372 24.44° C 36% 1026.2 hPa 0 mm - 115 W/m² -
1788216068 25° C 36% 1026.2 hPa 0 mm - 153 W/m² -
1788215763 25.56° C 36% 1026.4 hPa 0 mm - 154 W/m² -
1788215459 25.56° C 35% 1026.6 hPa 0 mm - 179 W/m² -
1788215155 25.56° C 35% 1026.6 hPa 0 mm - 200 W/m² -
1788214854 26.67° C 33% 1026.6 hPa 0 mm - 365 W/m² -
1788214545 26.67° C 35% 1026.4 hPa 0 mm - 497 W/m² -
1788214245 25.56° C 36% 1026.5 hPa 0 mm - 423 W/m² -
1788213945 26.11° C 36% 1026.7 hPa 0 mm - 329 W/m² -
1788213641 25.56° C 36% 1026.6 hPa 0 mm - 462 W/m² -
1788213336 25.56° C 37% 1026.7 hPa 0 mm - 504 W/m² -
1788213032 25° C 38% 1026.6 hPa 0 mm - 565 W/m² -
1788212730 24.44° C 39% 1026.7 hPa 0 mm - 406 W/m² -
1788212425 25° C 37% 1026.9 hPa 0 mm - 491 W/m² -
1788212121 25° C 38% 1026.9 hPa 0 mm - 476 W/m² -
1788211816 24.44° C 39% 1026.9 hPa 0 mm - 213 W/m² -
1788211513 24.44° C 38% 1026.9 hPa 0 mm - 234 W/m² -
1788211208 25° C 38% 1027.1 hPa 0 mm - 311 W/m² -
1788210902 24.44° C 39% 1027.2 hPa 0 mm - 457 W/m² -
1788210601 25° C 38% 1027.2 hPa 0 mm - 356 W/m² -
1788210296 25.56° C 35% 1027.1 hPa 0 mm - 388 W/m² -
1788209992 25.56° C 36% 1027.5 hPa 0 mm - 604 W/m² -
1788209688 25° C 35% 1027.1 hPa 0 mm - 644 W/m² -
1788209383 25° C 35% 1027.2 hPa 0 mm - 407 W/m² -
1788209082 25° C 35% 1027.5 hPa 0 mm - 762 W/m² -

* Rain latest hour (hover to see other rain measurements)
** Current wind speed in m/s (hover to see current wind gust speed)